#timestamp,LO_Frequency,Hit,StdDev 
1553148015.2,286046998.8,N
1553148035.1,286046998.1,N
1553148036.0,286046998.1,N
1553148055.8,286046998.1,N
1553148075.6,286047000.8,N
1553148095.5,286047000.2,N
1553148115.3,286047002.2,N
1553148135.1,286047001.9,N
1553148155.9,286047001.8,N
1553148175.7,286047001.5,N
1553148195.5,286047003.5,N
1553148215.4,286047005.3,N
1553148235.2,286047005.4,N
1553148255.1,286047006.8,N
1553148256.0,286047006.8,N
1553148275.8,286047004.6,N
1553148295.6,286047006.8,N
1553148315.5,286047004.6,N
1553148335.3,286047005.4,N
1553148355.1,286047005.4,N
1553148375.9,286047005.6,N
1553148395.7,286047003.1,N
1553148415.6,286047002.3,N
1553148435.4,286047002.7,N
1553148455.2,286047002.6,N
1553148475.1,286047002.6,N
1553148476.0,286047002.6,N
1553148495.8,286047001.2,N
1553148515.6,286046999.6,N
1553148535.5,286046998.4,N
1553148555.3,286046999.2,N
1553148575.2,286046996.5,N
1553148595.9,286046999.5,N
1553148615.7,286046996.5,N
1553148635.6,286046999.6,N
1553148655.4,286046999.4,N
1553148675.2,286046998.4,N
1553148695.1,286046999.1,N
1553148696.0,286046999.1,N
1553148715.8,286046998.8,N
1553148735.7,286047001.2,N
1553148755.5,286046998.4,N
1553148775.3,286046999.0,N
1553148795.2,286046998.3,N
1553148815.0,286046998.6,N
1553148815.9,286046998.6,N
1553148835.7,286046998.1,N
1553148855.6,286047001.0,N
1553148875.4,286047002.8,N
1553148895.3,286047002.5,N
1553148915.1,286047002.1,N
1553148916.0,286047002.1,N
1553148935.8,286047002.6,N
1553148955.7,286047002.4,N
1553148975.5,286047002.3,N
1553148995.3,286047001.4,N
1553149015.2,286047004.1,N
1553149035.0,286047004.2,N
1553149035.9,286047004.2,N
1553149055.8,286047005.2,N
1553149075.6,286047003.6,N
1553149095.4,286047003.7,N
1553149115.3,286047003.3,N
1553149135.1,286047004.4,N
1553149155.8,286047002.7,N
1553149175.7,286047000.9,N
1553149195.5,286046998.3,N
1553149215.4,286047001.2,N
1553149235.2,286047001.2,N
1553149255.0,286046998.5,N
1553149255.9,286046998.5,N
1553149275.8,286047001.0,N
1553149295.6,286047002.1,N
1553149315.5,286047000.1,N
1553149335.3,286047001.9,N
1553149355.1,286047001.3,N
1553149375.9,286047002.6,N
1553149395.7,286047000.2,N
1553149415.5,286047000.4,N
1553149435.4,286047002.7,N
1553149455.2,286047004.3,N
1553149475.1,286047001.9,N
1553149476.0,286047001.9,N
1553149495.8,286047002.3,N
1553149515.6,286047002.6,N
1553149535.5,286047000.9,N
1553149555.3,286046998.5,N
1553149575.1,286046998.6,N
1553149595.9,286046998.9,N
1553149645.7,286046996.9,E
1553149655.7,286047001.2,N
1553149675.5,286047004.3,P
1553149695.3,286047001.9,N
1553149715.2,286047002.1,N
1553149735.0,286047001.4,N
1553149735.9,286047001.4,N
1553149755.7,286047003.1,N
1553149775.6,286047003.6,Y
1553149795.4,286046999.7,P
1553149815.3,286046999.8,N
1553149835.1,286047002.6,N
1553149836.0,286047002.6,N
1553149855.8,286047000.5,N
1553149875.7,286047001.2,N
1553149895.5,286046999.8,N
1553149915.3,286047001.8,N
1553149935.2,286047001.4,N
1553149955.0,286047004.1,Y
1553149955.9,286047004.1,P
1553149975.8,286047003.2,N
1553149995.6,286047004.8,P
1553150015.4,286047007.0,Y
1553150035.3,286047002.9,P
1553150055.1,286047005.9,P
1553150075.9,286047003.3,N
1553150095.7,286047001.4,N
1553150115.5,286047002.5,N
1553150135.4,286047002.4,N
1553150155.2,286047002.8,N
1553150175.0,286047002.0,N
1553150175.9,286047002.0,N
1553150195.8,286046999.7,N
1553150215.6,286047003.6,N
1553150235.5,286047003.1,N
1553150255.3,286047002.9,N
1553150275.1,286047007.5,Y
1553150295.9,286047003.8,P
1553150315.7,286046999.8,N
1553150335.5,286046999.7,N
1553150355.4,286047002.4,N
1553150375.2,286047001.2,N
1553150395.1,286046998.6,N
1553150396.0,286046998.6,N
1553150415.8,286046998.4,N
1553150435.6,286046998.7,N
1553150455.5,286046999.2,N
1553150475.3,286046999.4,N
1553150495.1,286046998.2,N
1553150515.9,286046999.4,N
1553150535.7,286046998.6,N
1553150555.6,286046998.1,N
1553150575.4,286047002.7,N
1553150595.2,286047000.1,N
1553150615.1,286046999.8,N
1553150616.0,286046999.8,N
1553150635.8,286047002.3,N
1553150655.6,286047001.5,N
1553150675.5,286047002.0,N
1553150695.3,286047002.7,N
1553150715.2,286047002.4,N
1553150735.9,286047001.8,N
1553150755.7,286047002.2,N
1553150775.6,286047001.4,N
1553150795.4,286047001.7,N
1553150815.2,286047002.5,N
1553150835.1,286047000.5,N
1553150836.0,286047000.5,N
1553150855.8,286047001.2,N
1553150875.7,286047000.6,N
1553150895.5,286047000.5,N
1553150915.3,286046999.7,N
1553150935.2,286047000.5,N
1553150955.0,286046999.3,N
1553150955.9,286046999.3,N
1553150975.8,286046998.7,N
1553150995.6,286046998.6,N
1553151015.4,286046999.7,N
1553151035.3,286047000.1,N
1553151055.1,286047002.7,N
1553151075.8,286047001.4,N
1553151095.7,286047004.2,Y
1553151115.5,286047002.3,P
1553151135.4,286047002.8,P
1553151155.2,286047000.1,N
1553151175.0,286047000.0,N
1553151175.9,286047000.0,N
1553151195.8,286047002.3,N
1553151215.6,286047001.5,N
1553151235.4,286047002.3,N
1553151255.3,286047002.3,N
1553151275.1,286046998.8,N
1553151295.9,286046996.9,N
1553151315.7,286046996.6,N
1553151335.5,286046997.6,N
1553151355.4,286046998.0,N
1553151375.2,286046997.2,N
1553151395.0,286046999.1,N
1553151395.9,286046999.1,N
1553151415.8,286046997.0,N
1553151435.6,286046996.8,N
1553151455.5,286046997.0,N
1553151475.3,286046996.6,N
1553151495.1,286046997.0,N
1553151515.9,286046994.9,N
1553151535.7,286046995.7,N
1553151555.6,286046994.4,N
1553151575.4,286046994.2,N
1553151595.2,286046994.0,N
